(12369) Pirandello = 1991 LZ3 = 1994 CJ16 = 1998 KO65

Discovered at La Silla on 1994-02-08 by E. W. Elst.
(12369) Pirandello = 1994 CJ16

Luigi Pirandello (1867-1936) was a Sicilian writer who suffered from personal tragedy, leading him to explore madness, illusion and isolation. In 1925 he received the French Legion of Honor. In his well-known play Henri IV Pirandello's protagonist loses his mind, after falling from a horse. [Ref: Minor Planet Circ. 51188]

Orbit

Orbit type: Main Belt

Note: WebGL enabled browser required.

epoch2023-09-13.0
epoch JD2460200.5
perihelion date2022-04-18.40139
perihelion JD2459687.90139
argument of perihelion (°)83.42131
ascending node (°)121.67255
inclination (°)4.96482
eccentricity0.0887272
perihelion distance (AU)2.0892057
Tisserand w.r.t. Jupiter3.6
ΔV w.r.t. Earth (km/sec)9.1
semimajor axis (AU)2.2926237
mean anomaly (°)145.53991
mean daily motion (°/day)0.28392570
aphelion distance (AU)2.496
period (years)3.47
P-vector [x]-0.90244210
P-vector [y]-0.42150934
P-vector [z]-0.08904003
Q-vector [x]0.42446824
Q-vector [y]-0.83462176
Q-vector [z]-0.35104591
absolute magnitude14.34
phase slope0.15
uncertainty0
referenceMPEC 2024-B131
observations used5727
oppositions21
arc length (days)11903
first opposition used1991
last opposition used2024
residual rms (arc-secs)0.42
perturbers coarse indicatorM-v
perturbers precise indicator003Ek
first observation date used1991-06-06.0
last observation date used2024-01-07.0
computer nameMPCLINUX
JD of orbit computation2456819.498164
perihelion JD uncertainty (days)8.5472E-05
argument of perihelion uncertainty (°)5.7257E-05
ascending node uncertainty (°)5.3062E-05
inclination uncertainty (°)3.7887E-06
eccentricity uncertainty 4.8196E-08
perihelion distance uncertainty (AU)1.1236E-07
Minimum Orbit Intersection Distances (in AU)
for orbit epoch: 2460200.5, reference: E2024-BD1
Mercury1.65011
Venus1.36814
Earth1.09109
Mars0.46224
Jupiter2.46682
Saturn6.64957
Uranus16.3038
Neptune27.3466

Observations

5764 total observations over interval: 1991 06 06.12153 – 2024 01 07.231092
These data are available for download (format description).

Date (UT) J2000 RA J2000 Dec Magn Location Ref
1991 06 06.12153 16 28 52.57 -14 26 16.5 18.0   809 – European Southern Observatory, La Silla MPC 18589
1991 06 06.13472 16 28 51.75 -14 26 16.5   809 – European Southern Observatory, La Silla MPC 18589
1991 06 06.14792 16 28 50.87 -14 26 16.6   809 – European Southern Observatory, La Silla MPC 18589
1991 06 08.09722 16 26 55.22 -14 27 11.9   809 – European Southern Observatory, La Silla MPC 18589
1991 06 08.11042 16 26 54.39 -14 27 11.8   809 – European Southern Observatory, La Silla MPC 18589
1991 06 08.12361 16 26 53.52 -14 27 12.3   809 – European Southern Observatory, La Silla MPC 18589
1994 02 08.24653 11 16 10.64 +09 46 22.9 18.1   809 – European Southern Observatory, La Silla MPC 23751
1994 02 08.25833 11 16 10.19 +09 46 27.7   809 – European Southern Observatory, La Silla MPC 23751
1994 02 08.27014 11 16 09.75 +09 46 33.4   809 – European Southern Observatory, La Silla MPC 23751
1994 02 10.23056 11 15 05.37 +10 01 21.9   809 – European Southern Observatory, La Silla MPC 23751
1994 02 10.24236 11 15 04.92 +10 01 27.9   809 – European Southern Observatory, La Silla MPC 23751
1994 02 10.25417 11 15 04.44 +10 01 32.5   809 – European Southern Observatory, La Silla MPC 23751
1994 02 13.23750 11 13 13.85 +10 25 06.8 18.0   809 – European Southern Observatory, La Silla MPC 23751
1994 02 13.24931 11 13 13.30 +10 25 13.1   809 – European Southern Observatory, La Silla MPC 23751
1994 02 13.26111 11 13 12.76 +10 25 19.0   809 – European Southern Observatory, La Silla MPC 23751
1994 02 16.02222 11 11 18.31 +10 47 56.8 18.3   010 – Caussols MPS 5831
1994 02 16.03750 11 11 17.66 +10 48 04.2   010 – Caussols MPS 5831
1998 04 28.34198 17 44 16.005 -16 44 12.77 15.87 J I02 – Cerro Tololo Observatory, La Serena--2MASS MPS 80673
1998 05 22.37073 17 34 16.92 -16 31 09.1 17.5   704 – Lincoln Laboratory ETS, New Mexico MPS 1789
1998 05 22.39034 17 34 15.93 -16 31 09.6 17.7   704 – Lincoln Laboratory ETS, New Mexico MPS 1789
1998 05 22.40994 17 34 14.99 -16 31 09.4 17.9   704 – Lincoln Laboratory ETS, New Mexico MPS 1789
1998 05 22.42947 17 34 13.90 -16 31 09.3 17.9   704 – Lincoln Laboratory ETS, New Mexico MPS 1789
1998 05 24.37992 17 32 38.64 -16 31 23.8 17.5   704 – Lincoln Laboratory ETS, New Mexico MPS 1789
1998 05 24.39953 17 32 37.61 -16 31 22.3 17.5   704 – Lincoln Laboratory ETS, New Mexico MPS 1789
1998 05 24.41931 17 32 36.64 -16 31 20.6 17.6   704 – Lincoln Laboratory ETS, New Mexico MPS 1789
1998 05 24.43881 17 32 35.70 -16 31 22.4 17.9   704 – Lincoln Laboratory ETS, New Mexico MPS 1789
1998 06 03.34920 17 23 19.82 -16 36 05.6 17.5   704 – Lincoln Laboratory ETS, New Mexico MPS 5831
1998 06 03.36228 17 23 19.03 -16 36 07.6 17.2   704 – Lincoln Laboratory ETS, New Mexico MPS 5831
1998 06 03.37541 17 23 18.06 -16 36 05.1 16.8   704 – Lincoln Laboratory ETS, New Mexico MPS 5831
1998 06 03.38845 17 23 17.23 -16 36 06.2 16.8   704 – Lincoln Laboratory ETS, New Mexico MPS 5831
1998 06 24.15721 17 02 23.74 -17 05 59.7 17.2   704 – Lincoln Laboratory ETS, New Mexico MPS 5831
1998 06 24.17562 17 02 22.75 -17 06 03.3 17.2   704 – Lincoln Laboratory ETS, New Mexico MPS 5831
1998 06 24.19391 17 02 21.66 -17 06 05.5 17.3   704 – Lincoln Laboratory ETS, New Mexico MPS 5831
1998 06 24.21221 17 02 20.72 -17 06 08.8 17.3   704 – Lincoln Laboratory ETS, New Mexico MPS 5831
1998 06 24.23046 17 02 19.73 -17 06 11.6 17.8   704 – Lincoln Laboratory ETS, New Mexico MPS 5831
1999 09 30.37710 02 35 38.02 +07 04 56.2 17.6 R 703 – Catalina Sky Survey MPS 6631
1999 09 30.38953 02 35 37.60 +07 04 53.0 17.6 R 703 – Catalina Sky Survey MPS 6631
1999 09 30.40197 02 35 37.13 +07 04 48.7 17.9 R 703 – Catalina Sky Survey MPS 6631
1999 09 30.41438 02 35 36.62 +07 04 45.3 17.8 R 703 – Catalina Sky Survey MPS 6631
1999 10 04.36152 02 33 07.10 +06 44 10.1 17.5 R 703 – Catalina Sky Survey MPS 6631
1999 10 04.37361 02 33 06.60 +06 44 05.9 17.5 R 703 – Catalina Sky Survey MPS 6631
1999 10 04.38570 02 33 06.04 +06 44 02.2 17.5 R 703 – Catalina Sky Survey MPS 6631
1999 10 04.39778 02 33 05.53 +06 43 58.2 17.6 R 703 – Catalina Sky Survey MPS 6631
1999 10 07.36683 02 30 57.77 +06 27 50.4 17.8   704 – Lincoln Laboratory ETS, New Mexico MPS 6631
1999 10 07.37749 02 30 57.26 +06 27 46.9 17.9   704 – Lincoln Laboratory ETS, New Mexico MPS 6631
1999 10 07.38822 02 30 56.81 +06 27 42.8 17.7   704 – Lincoln Laboratory ETS, New Mexico MPS 6631
1999 10 07.39889 02 30 56.34 +06 27 39.6 17.8   704 – Lincoln Laboratory ETS, New Mexico MPS 6631
1999 10 07.40965 02 30 55.84 +06 27 35.0 17.9   704 – Lincoln Laboratory ETS, New Mexico MPS 6631
1999 10 09.34620 02 29 26.06 +06 16 51.1 18.0   704 – Lincoln Laboratory ETS, New Mexico MPS 6631
1999 10 09.35977 02 29 25.38 +06 16 46.4 18.1   704 – Lincoln Laboratory ETS, New Mexico MPS 6631
1999 10 09.37298 02 29 24.72 +06 16 42.0 18.1   704 – Lincoln Laboratory ETS, New Mexico MPS 6631
1999 10 09.38780 02 29 24.01 +06 16 37.2 18.2   704 – Lincoln Laboratory ETS, New Mexico MPS 6631
1999 10 09.40364 02 29 23.23 +06 16 31.7 18.3   704 – Lincoln Laboratory ETS, New Mexico MPS 6631
1999 10 19.25576 02 20 43.24 +05 20 51.5 17.7   704 – Lincoln Laboratory ETS, New Mexico MPS 6631
1999 10 19.26974 02 20 42.46 +05 20 47.2 17.5   704 – Lincoln Laboratory ETS, New Mexico MPS 6631
1999 10 19.28375 02 20 41.60 +05 20 42.2 17.5   704 – Lincoln Laboratory ETS, New Mexico MPS 6631
1999 10 19.29773 02 20 40.78 +05 20 37.6 17.4   704 – Lincoln Laboratory ETS, New Mexico MPS 6631
1999 10 19.31178 02 20 39.94 +05 20 32.5 17.5   704 – Lincoln Laboratory ETS, New Mexico MPS 6631
1999 10 30.16164 02 10 00.88 +04 23 09.6 17.0 R 699 – Lowell Observatory-LONEOS MPS 8277
1999 10 30.18710 02 09 59.36 +04 23 03.4   699 – Lowell Observatory-LONEOS MPS 8277
1999 10 30.21253 02 09 57.83 +04 22 55.1   699 – Lowell Observatory-LONEOS MPS 8277
1999 11 03.23041 02 06 00.67 +04 04 22.5 17.2 R 703 – Catalina Sky Survey MPS 7251
1999 11 03.24681 02 05 59.74 +04 04 17.0 17.3 R 703 – Catalina Sky Survey MPS 7251
1999 11 03.26310 02 05 58.72 +04 04 13.3 17.3 R 703 – Catalina Sky Survey MPS 7251
1999 11 03.27948 02 05 57.73 +04 04 08.8 17.4 R 703 – Catalina Sky Survey MPS 7251
1999 11 06.23573 02 03 07.83 +03 51 48.3 17.4   704 – Lincoln Laboratory ETS, New Mexico MPS 7251
1999 11 06.25206 02 03 06.90 +03 51 44.2 17.7   704 – Lincoln Laboratory ETS, New Mexico MPS 7251
1999 11 06.26841 02 03 05.91 +03 51 40.6 17.8   704 – Lincoln Laboratory ETS, New Mexico MPS 7251
1999 11 06.28478 02 03 04.96 +03 51 36.8 18.0   704 – Lincoln Laboratory ETS, New Mexico MPS 7251
1999 11 06.30107 02 03 04.00 +03 51 32.9 18.1   704 – Lincoln Laboratory ETS, New Mexico MPS 7251
1999 11 07.22797 02 02 11.98 +03 47 55.8 17.6   704 – Lincoln Laboratory ETS, New Mexico MPS 7251
1999 11 07.26046 02 02 10.09 +03 47 48.9 18.3   704 – Lincoln Laboratory ETS, New Mexico MPS 7251
1999 11 07.27671 02 02 09.18 +03 47 44.6 18.0   704 – Lincoln Laboratory ETS, New Mexico MPS 7251
1999 12 03.21383 01 44 39.93 +03 08 00.5 18.1   704 – Lincoln Laboratory ETS, New Mexico MPS 8277
1999 12 03.22834 01 44 39.66 +03 08 01.7 18.0   704 – Lincoln Laboratory ETS, New Mexico MPS 8277
1999 12 03.24275 01 44 39.33 +03 08 02.2 18.2   704 – Lincoln Laboratory ETS, New Mexico MPS 8277
1999 12 03.25719 01 44 39.02 +03 08 01.0 18.9   704 – Lincoln Laboratory ETS, New Mexico MPS 8277
1999 12 03.27156 01 44 38.61 +03 08 03.7 18.2   704 – Lincoln Laboratory ETS, New Mexico MPS 8277
2000 01 05.07141 01 48 02.18 +05 04 39.1 18.2   704 – Lincoln Laboratory ETS, New Mexico MPS 9725
2000 01 05.08676 01 48 02.66 +05 04 43.5 18.4   704 – Lincoln Laboratory ETS, New Mexico MPS 9725
2000 01 05.10189 01 48 03.12 +05 04 49.5 18.2   704 – Lincoln Laboratory ETS, New Mexico MPS 9725
2000 01 05.11702 01 48 03.58 +05 04 54.4 18.3   704 – Lincoln Laboratory ETS, New Mexico MPS 9725
